Litchfield, IL

5:02 AM CDT on July 22, 2017 (GMT -0500)
Litchfield

Weather History for K3LF - September, 2012

Change the Weather History Date:

Sunday, September 23, 2012

  Actual Average (KALN) Record (KALN)
Temperature  
Mean Temperature 52 °F -  
Max Temperature 66 °F 75 °F 93 °F (2007)
Min Temperature 37 °F 52 °F 41 °F (2012)
Degree Days  
Heating Degree Days 14    
Growing Degree Days 2 (Base 50)    
Moisture  
Dew Point 35 °F    
Average Humidity 59    
Maximum Humidity 93    
Minimum Humidity 24    
Precipitation  
Precipitation 0.00 in - - ()
Sea Level Pressure  
Sea Level Pressure 30.27 in    
Wind  
Wind Speed 4 mph (NW)    
Max Wind Speed 13 mph    
Max Gust Speed 18 mph    
Visibility 10 miles    
Events      
Averages and records for this station are not official NWS values.
T = Trace of Precipitation, MM = Missing Value Source: NWS Daily Summary

Daily Weather History Graph

Daily Weather History Graph

Search for Another Location

Airport or City:

Trip Planner

Search our weather history database for the weather conditions in past years. The results will help you decide how hot, cold, wet, or windy it might be!

Date:

Astronomy

Sep. 23, 2012 Rise Set
Actual Time 6:47 AM CDT 6:53 PM CDT
Civil Twilight 6:21 AM CDT 7:19 PM CDT
Nautical Twilight 5:49 AM CDT 7:51 PM CDT
Astronomical Twilight 5:18 AM CDT 8:22 PM CDT
Moon 2:52 PM CDT (9/23) 12:02 AM CDT (9/23)
Length of Visible Light 12h 58m
Length of Day
12h 05m
First Quarter, 60% of the Moon is Illuminated
Sep 23
First Quarter
Sep 29
Full
Oct 8
Last Quarter
Oct 15
New
Oct 21
First Quarter

Hourly Weather History & Observations

Time (CDT) Temp. Windchill Dew Point Humidity Pressure Visibility Wind Dir Wind Speed Gust Speed Precip Events Conditions
12:15 AM 43.5 °F 40.1 °F 36.3 °F 76% 30.23 in 10.0 mi NNW 5.8 mph - N/A   Clear
12:35 AM 44.2 °F 41.8 °F 36.1 °F 73% 30.23 in 10.0 mi NNW 4.6 mph - N/A   Clear
12:55 AM 43.7 °F - 36.3 °F 75% 30.23 in 10.0 mi Calm Calm - N/A   Clear
1:15 AM 44.4 °F 42.9 °F 36.5 °F 74% 30.23 in 10.0 mi NNW 3.5 mph - N/A   Clear
1:35 AM 43.7 °F - 36.9 °F 77% 30.23 in 10.0 mi Calm Calm - N/A   Clear
1:55 AM 43.7 °F 41.1 °F 36.9 °F 77% 30.24 in 10.0 mi North 4.6 mph - N/A   Clear
2:15 AM 43.5 °F 40.1 °F 36.9 °F 77% 30.24 in 10.0 mi NNW 5.8 mph - N/A   Clear
2:35 AM 42.4 °F 38.8 °F 37.0 °F 81% 30.24 in 10.0 mi North 5.8 mph - N/A   Clear
2:55 AM 41.9 °F 39.0 °F 36.9 °F 82% 30.24 in 10.0 mi NNW 4.6 mph - N/A   Clear
3:15 AM 41.4 °F 36.8 °F 36.7 °F 83% 30.25 in 10.0 mi NNW 6.9 mph - N/A   Clear
3:35 AM 41.0 °F 38.0 °F 36.5 °F 84% 30.25 in 10.0 mi NW 4.6 mph - N/A   Clear
3:55 AM 41.0 °F 38.0 °F 36.5 °F 84% 30.25 in 10.0 mi NNW 4.6 mph - N/A   Clear
4:15 AM 40.6 °F 37.5 °F 36.5 °F 85% 30.26 in 10.0 mi NNW 4.6 mph - N/A   Clear
4:35 AM 40.3 °F 37.1 °F 36.5 °F 86% 30.26 in 10.0 mi NNW 4.6 mph - N/A   Clear
4:55 AM 39.4 °F - 36.5 °F 89% 30.26 in 10.0 mi Calm Calm - N/A   Clear
5:15 AM 37.8 °F - 35.6 °F 92% 30.27 in 10.0 mi Calm Calm - N/A   Clear
5:35 AM 38.3 °F 35.9 °F 36.1 °F 92% 30.27 in 10.0 mi NW 3.5 mph - N/A   Clear
5:55 AM 39.0 °F 35.7 °F 36.7 °F 91% 30.27 in 10.0 mi NNW 4.6 mph - N/A   Clear
6:15 AM 39.9 °F 36.7 °F 36.9 °F 89% 30.27 in 10.0 mi NNW 4.6 mph - N/A   Clear
6:35 AM 37.9 °F - 35.2 °F 90% 30.28 in 10.0 mi Calm Calm - N/A   Clear
6:55 AM 38.7 °F 36.3 °F 36.7 °F 93% 30.28 in 10.0 mi NNW 3.5 mph - N/A   Clear
7:15 AM 39.7 °F 37.6 °F 37.4 °F 91% 30.29 in 10.0 mi NNW 3.5 mph - N/A   Clear
7:35 AM 41.7 °F 39.8 °F 38.5 °F 88% 30.29 in 10.0 mi NNW 3.5 mph - N/A   Clear
7:55 AM 44.1 °F 42.5 °F 39.4 °F 84% 30.30 in 10.0 mi NNW 3.5 mph - N/A   Clear
8:15 AM 46.2 °F 45.0 °F 40.5 °F 80% 30.31 in 10.0 mi NW 3.5 mph - N/A   Clear
8:35 AM 48.9 °F - 42.6 °F 79% 30.31 in 10.0 mi Calm Calm - N/A   Clear
8:55 AM 50.9 °F - 41.5 °F 70% 30.31 in 10.0 mi Calm Calm - N/A   Clear
9:15 AM 53.1 °F - 40.5 °F 62% 30.31 in 10.0 mi NNW 5.8 mph - N/A   Clear
9:35 AM 55.2 °F - 40.6 °F 58% 30.32 in 10.0 mi NNW 5.8 mph - N/A   Clear
9:55 AM 56.5 °F - 40.5 °F 55% 30.32 in 10.0 mi North 4.6 mph - N/A   Clear
10:15 AM 58.3 °F - 39.0 °F 49% 30.32 in 10.0 mi North 4.6 mph - N/A   Clear
11:15 AM 60.1 °F - 34.0 °F 38% 30.32 in 10.0 mi NW 4.6 mph - N/A   Clear
11:55 AM 60.8 °F - 32.4 °F 34% 30.32 in 10.0 mi NNW 4.6 mph 9.2 mph N/A   Clear
12:15 PM 62.1 °F - 33.4 °F 34% 30.31 in 10.0 mi NW 10.4 mph - N/A   Clear
12:35 PM 62.4 °F - 31.8 °F 32% 30.31 in 10.0 mi North 10.4 mph - N/A   Clear
12:55 PM 62.6 °F - 33.3 °F 33% 30.30 in 10.0 mi NNW 5.8 mph 10.4 mph N/A   Clear
1:15 PM 63.9 °F - 32.7 °F 31% 30.30 in 10.0 mi NW 9.2 mph - N/A   Clear
1:35 PM 63.9 °F - 32.2 °F 31% 30.28 in 10.0 mi WNW 5.8 mph 18.4 mph N/A   Clear
1:55 PM 65.1 °F - 33.1 °F 30% 30.28 in 10.0 mi West 8.1 mph 16.1 mph N/A   Clear
2:15 PM 64.9 °F - 31.8 °F 29% 30.27 in 10.0 mi WNW 8.1 mph - N/A   Clear
2:35 PM 65.3 °F - 31.6 °F 28% 30.27 in 10.0 mi NW 8.1 mph 16.1 mph N/A   Clear
2:55 PM 65.3 °F - 29.3 °F 26% 30.26 in 10.0 mi WNW 5.8 mph - N/A   Clear
3:15 PM 65.8 °F - 30.4 °F 27% 30.26 in 10.0 mi NNW 6.9 mph - N/A   Clear
3:35 PM 66.0 °F - 31.1 °F 27% 30.25 in 10.0 mi WNW 10.4 mph - N/A   Clear
3:55 PM 66.4 °F - 30.0 °F 26% 30.24 in 10.0 mi North 6.9 mph 16.1 mph N/A   Clear
4:15 PM 66.2 °F - 29.7 °F 25% 30.24 in 10.0 mi WNW 12.7 mph 16.1 mph N/A   Clear
4:35 PM 66.4 °F - 28.2 °F 24% 30.24 in 10.0 mi WNW 12.7 mph - N/A   Clear
4:55 PM 66.4 °F - 28.0 °F 24% 30.24 in 10.0 mi NW 10.4 mph - N/A   Clear
5:15 PM 66.0 °F - 28.6 °F 25% 30.23 in 10.0 mi NNW 9.2 mph - N/A   Clear
5:35 PM 65.3 °F - 29.1 °F 26% 30.23 in 10.0 mi NW 10.4 mph - N/A   Clear
5:55 PM 64.4 °F - 29.7 °F 27% 30.23 in 10.0 mi WNW 6.9 mph - N/A   Clear
6:15 PM 63.3 °F - 29.3 °F 28% 30.23 in 10.0 mi WNW 5.8 mph - N/A   Clear
6:35 PM 61.2 °F - 30.9 °F 32% 30.24 in 10.0 mi NW 3.5 mph - N/A   Clear
6:55 PM 57.9 °F - 32.2 °F 38% 30.24 in 10.0 mi NW 3.5 mph - N/A   Clear
7:15 PM 57.0 °F - 31.6 °F 38% 30.24 in 10.0 mi WNW 4.6 mph - N/A   Clear
7:35 PM 54.1 °F - 32.7 °F 44% 30.24 in 10.0 mi WNW 3.5 mph - N/A   Clear
7:55 PM 52.0 °F - 33.1 °F 49% 30.25 in 10.0 mi Calm Calm - N/A   Clear
8:15 PM 52.0 °F - 35.4 °F 53% 30.25 in 10.0 mi Calm Calm - N/A   Clear
8:35 PM 49.6 °F - 35.8 °F 59% 30.26 in 10.0 mi Calm Calm - N/A   Clear
8:55 PM 47.5 °F - 35.1 °F 62% 30.26 in 10.0 mi Calm Calm - N/A   Clear
9:15 PM 47.7 °F - 36.3 °F 65% 30.26 in 10.0 mi Calm Calm - N/A   Clear
9:35 PM 46.0 °F - 35.6 °F 67% 30.27 in 10.0 mi Calm Calm - N/A   Clear
9:55 PM 48.0 °F - 35.2 °F 61% 30.27 in 10.0 mi Calm Calm - N/A   Clear
10:15 PM 46.2 °F - 35.6 °F 66% 30.27 in 10.0 mi Calm Calm - N/A   Clear
10:35 PM 45.1 °F - 35.1 °F 68% 30.27 in 10.0 mi Calm Calm - N/A   Clear
10:55 PM 42.8 °F - 34.3 °F 72% 30.27 in 10.0 mi Calm Calm - N/A   Clear
11:15 PM 43.2 °F - 34.2 °F 71% 30.27 in 10.0 mi Calm Calm - N/A   Clear
11:35 PM 43.5 °F - 35.2 °F 73% 30.27 in 10.0 mi Calm Calm - N/A   Clear
11:55 PM 41.9 °F - 35.4 °F 78% 30.26 in 10.0 mi Calm Calm - N/A   Clear